Regional Weather Roundup
Issued by NWS

Home | Current Version | Previous Version | Graphics & Text | Print | Product List | Glossary On
Versions: 1 2 3 4 5 6 7 8 9 10 11 12 13 14 15 16 17 18 19 20 21 22 23 24 25 26 27 28 29 30 31 32 33 34 35 36 37 38 39 40 41 42 43 44 45 46 47 48 49 50
884
ASUS44 KJAN 020710
RWRMS

MISSISSIPPI HOURLY WEATHER ROUNDUP
NATIONAL WEATHER SERVICE JACKSON MS
100 AM CST MON MAR 02 2015

NOTE: "FAIR: INDICATES FEW OR NO CLOUDS BELOW 12,000 FEET WITH NO
SIGNIFICANT WEATHER AND/OR OBSTRUCTIONS TO VISIBILITY.

MSZ001>002-007>008-010>013-018>021-025>028-034>036-020800-
NORTHWEST MISSISSIPPI

CITY           SKY/WX    TMP DP  RH WIND       PRES   REMARKS
CLARKSDALE     CLOUDY    37  37 100 N17       30.40R WCI  28
CLEVELAND      CLOUDY    40  40 100 N17       30.37R FOG     WCI  31
GREENWOOD        N/A    N/A N/A N/A MISG      30.33S
GREENVILLE     LGT RAIN  41  39  93 N13       30.35S FOG
OLIVE BRANCH   CLOUDY    36 N/A N/A NE10      30.39S WCI  28
OXFORD         CLOUDY    39  39 100 N10       30.37S WCI  32
TUNICA         CLOUDY    37  36  93 N12       30.42R WCI  30
$$

MSZ003>006-009-014>017-022>024-029>033-037>039-020800-
NORTHEAST MISSISSIPPI

CITY           SKY/WX    TMP DP  RH WIND       PRES   REMARKS
COLUMBUS AFB   DRZL/FOG  52  52 100 CALM      30.32F VSB 3/4
CORINTH        MIX PCPN  43  41  93 N8        30.36S
GOLDN TRIANGLE CLOUDY    54  52  94 CALM      30.31F VSB 3/4
STARKVILLE     FOG       52  50  93 CALM      30.32S VSB 1/4
TUPELO         CLOUDY    51  49  92 NE6       30.34R FOG
$$

MSZ040-058-020800-
CENTRAL MISSISSIPPI

CITY           SKY/WX    TMP DP  RH WIND       PRES   REMARKS
JACKSON INTL   FOG       56  56 100 CALM      30.30S VSB 1
JACKSON HAWKNS FOG       57  56  96 CALM      30.30S VSB 1/4
MERIDIAN KEY   CLOUDY    54  54 100 CALM      30.31F
MERIDIAN NAS   LGT RAIN  55  54  96 CALM      30.31F VSB 1/2
VICKSBURG      FOG       47  46  97 N8        30.31F VSB 1/2
$$

MSZ059>079-020800-
SOUTH MISSISSIPPI

CITY           SKY/WX    TMP DP  RH WIND       PRES   REMARKS
BROOKHAVEN     LGT RAIN  59  59 100 CALM      30.30F
HATTIESBURG    CLOUDY    59  58  96 CALM      30.30S FOG
MCCOMB         CLOUDY    61  60  97 SE5       30.28F
NATCHEZ        CLOUDY    52  50  93 NE3       30.29F VSB 1/4
PINE BELT      CLOUDY    55  54  94 NE3       30.30S VSB 3/4
$$

MSZ080>082-020800-
COASTAL MISSISSIPPI

CITY           SKY/WX    TMP DP  RH WIND       PRES   REMARKS
BILOXI         RAIN      59  59 100 E6        30.30F
PASCAGOULA     HVY RAIN  57  56  96 E9        30.31F FOG
GULFPORT       LGT RAIN  59  57  93 E10       30.31F FOG
$$



USA.gov is the U.S. government's official web portal to all federal, state and local government web resources and services.